Location: Piedmont
(45.8748°N, 74.1254°W)
Time: 16:39:17
(UTC+00:00)

X-37B - Pass Details

Date: 09 December 2021
Orbit: 334 x 337 km, 45.0° (Epoch: 11 January)

Event Time Altitude Azimuth Distance (km) Brightness Sun altitude
Rises 22:24:56 0° 236° (SW) 2,097 6.1 -12.2°
Reaches altitude 10° 22:27:01 10° 227° (SW) 1,263 4.3 -12.6°
Maximum altitude 22:29:37 34° 159° (SSE) 573 1.4 -13.0°
Enters shadow 22:30:54 22° 110° (ESE) 793 1.7 -13.2°
